Time,TemperatureF,DewpointF,PressureIn,WindDirection,WindDirectionDegrees,WindSpeedMPH,WindSpeedGustMPH,Humidity,HourlyPrecipIn,Conditions,Clouds,dailyrainin,SoftwareType,DateUTC
2013-06-27 00:05:00,70.5,68.0,29.80,SSW,211,0.0,5.0,92,0.00,,,0.00,weatherlink.com 1.10,2013-06-27 04:05:00,
2013-06-27 00:20:00,70.7,69.0,29.80,SSW,211,0.0,1.0,93,0.00,,,0.00,weatherlink.com 1.10,2013-06-27 04:20:00,
2013-06-27 00:35:00,70.7,69.0,29.80,SSW,211,0.0,1.0,93,0.00,,,0.00,weatherlink.com 1.10,2013-06-27 04:35:00,
2013-06-27 00:50:00,70.2,68.0,29.79,SSW,208,0.0,2.0,93,0.00,,,0.00,weatherlink.com 1.10,2013-06-27 04:50:00,
2013-06-27 01:05:00,69.7,68.0,29.78,SSW,208,0.0,0.0,93,0.00,,,0.00,weatherlink.com 1.10,2013-06-27 05:05:00,
2013-06-27 01:20:00,69.7,68.0,29.79,SSW,208,0.0,0.0,94,0.00,,,0.00,weatherlink.com 1.10,2013-06-27 05:20:00,
2013-06-27 01:35:00,69.5,68.0,29.79,SSW,208,0.0,0.0,94,0.00,,,0.00,weatherlink.com 1.10,2013-06-27 05:35:00,
2013-06-27 01:50:00,69.5,68.0,29.78,SSW,208,0.0,1.0,95,0.00,,,0.00,weatherlink.com 1.10,2013-06-27 05:50:00,
2013-06-27 02:05:00,69.7,68.0,29.78,SW,230,2.0,2.0,94,0.00,,,0.00,weatherlink.com 1.10,2013-06-27 06:05:00,
2013-06-27 02:20:00,67.9,66.0,29.78,South,174,3.0,3.0,94,0.00,,,0.00,weatherlink.com 1.10,2013-06-27 06:20:00,
2013-06-27 02:35:00,67.4,66.0,29.78,SSW,205,0.0,3.0,95,0.00,,,0.00,weatherlink.com 1.10,2013-06-27 06:35:00,
2013-06-27 02:50:00,67.2,66.0,29.77,South,172,3.0,3.0,95,0.00,,,0.00,weatherlink.com 1.10,2013-06-27 06:50:00,
2013-06-27 03:05:00,67.1,66.0,29.77,SSW,210,0.0,2.0,95,0.00,,,0.00,weatherlink.com 1.10,2013-06-27 07:05:00,
2013-06-27 03:20:00,67.0,66.0,29.76,SSE,158,0.0,2.0,96,0.00,,,0.00,weatherlink.com 1.10,2013-06-27 07:20:00,
2013-06-27 03:35:00,66.7,66.0,29.76,South,189,0.0,1.0,96,0.00,,,0.00,weatherlink.com 1.10,2013-06-27 07:35:00,
2013-06-27 03:50:00,66.8,66.0,29.76,South,188,0.0,1.0,96,0.00,,,0.00,weatherlink.com 1.10,2013-06-27 07:50:00,
2013-06-27 04:05:00,67.0,66.0,29.76,SSE,164,1.0,2.0,96,0.00,,,0.00,weatherlink.com 1.10,2013-06-27 08:05:00,
2013-06-27 04:20:00,67.2,66.0,29.76,SSW,197,2.0,3.0,97,0.00,,,0.00,weatherlink.com 1.10,2013-06-27 08:20:00,
2013-06-27 04:35:00,67.2,66.0,29.77,WSW,243,0.0,2.0,97,0.00,,,0.00,weatherlink.com 1.10,2013-06-27 08:35:00,
2013-06-27 04:50:00,67.2,66.0,29.77,SSE,166,1.0,2.0,97,0.00,,,0.00,weatherlink.com 1.10,2013-06-27 08:50:00,
2013-06-27 05:06:00,66.9,66.0,29.77,SSE,160,0.0,3.0,97,0.00,,,0.00,weatherlink.com 1.10,2013-06-27 09:06:00,
2013-06-27 05:20:00,66.8,66.0,29.77,SSE,166,0.0,2.0,97,0.00,,,0.00,weatherlink.com 1.10,2013-06-27 09:20:00,
2013-06-27 05:35:00,67.0,66.0,29.77,ESE,118,0.0,1.0,97,0.00,,,0.00,weatherlink.com 1.10,2013-06-27 09:35:00,
2013-06-27 05:50:00,67.3,67.0,29.78,NNE,27,2.0,2.0,97,0.00,,,0.00,weatherlink.com 1.10,2013-06-27 09:50:00,
2013-06-27 06:05:00,67.4,67.0,29.79,SE,136,1.0,2.0,97,0.00,,,0.00,weatherlink.com 1.10,2013-06-27 10:05:00,
2013-06-27 06:20:00,67.4,67.0,29.79,South,184,2.0,3.0,97,0.00,,,0.00,weatherlink.com 1.10,2013-06-27 10:20:00,
2013-06-27 06:35:00,67.2,66.0,29.79,SSE,155,4.0,5.0,97,0.00,,,0.00,weatherlink.com 1.10,2013-06-27 10:35:00,
2013-06-27 06:50:00,66.6,66.0,29.79,South,182,2.0,5.0,97,0.00,,,0.00,weatherlink.com 1.10,2013-06-27 10:50:00,
2013-06-27 07:05:00,66.7,66.0,29.80,SSW,201,0.0,3.0,97,0.00,,,0.00,weatherlink.com 1.10,2013-06-27 11:05:00,
2013-06-27 07:20:00,66.9,66.0,29.80,SSW,193,0.0,0.0,98,0.00,,,0.00,weatherlink.com 1.10,2013-06-27 11:20:00,
2013-06-27 07:35:00,67.1,67.0,29.80,SSW,193,0.0,0.0,98,0.00,,,0.00,weatherlink.com 1.10,2013-06-27 11:35:00,
2013-06-27 07:50:00,67.4,67.0,29.79,SSW,193,0.0,0.0,98,0.00,,,0.00,weatherlink.com 1.10,2013-06-27 11:50:00,
2013-06-27 08:05:00,67.8,67.0,29.79,NE,34,1.0,3.0,98,0.00,,,0.00,weatherlink.com 1.10,2013-06-27 12:05:00,
2013-06-27 08:20:00,68.0,68.0,29.80,NE,39,4.0,5.0,98,0.00,,,0.00,weatherlink.com 1.10,2013-06-27 12:20:00,
2013-06-27 08:35:00,68.0,68.0,29.80,NNE,26,5.0,6.0,98,0.00,,,0.00,weatherlink.com 1.10,2013-06-27 12:35:00,
2013-06-27 08:50:00,67.8,67.0,29.80,NE,41,4.0,6.0,98,0.00,,,0.00,weatherlink.com 1.10,2013-06-27 12:50:00,
2013-06-27 09:05:00,67.5,67.0,29.80,NE,56,4.0,6.0,98,0.00,,,0.00,weatherlink.com 1.10,2013-06-27 13:05:00,
2013-06-27 09:20:00,67.5,67.0,29.79,ENE,72,5.0,6.0,98,0.00,,,0.00,weatherlink.com 1.10,2013-06-27 13:20:00,
2013-06-27 09:35:00,67.3,67.0,29.79,ENE,69,5.0,7.0,98,0.00,,,0.00,weatherlink.com 1.10,2013-06-27 13:35:00,
2013-06-27 09:50:00,67.1,67.0,29.78,NE,43,6.0,8.0,98,0.00,,,0.00,weatherlink.com 1.10,2013-06-27 13:50:00,
2013-06-27 10:05:00,67.0,67.0,29.78,NE,44,8.0,10.0,98,0.00,,,0.00,weatherlink.com 1.10,2013-06-27 14:05:00,
2013-06-27 10:21:00,66.8,66.0,29.78,ENE,70,7.0,9.0,98,0.00,,,0.00,weatherlink.com 1.10,2013-06-27 14:21:00,
2013-06-27 10:36:00,66.7,66.0,29.78,ENE,64,9.0,9.0,98,0.00,,,0.00,weatherlink.com 1.10,2013-06-27 14:36:00,
2013-06-27 10:51:00,66.6,66.0,29.79,ENE,75,7.0,9.0,98,0.00,,,0.00,weatherlink.com 1.10,2013-06-27 14:51:00,
2013-06-27 11:06:00,66.8,66.0,29.78,ENE,69,8.0,10.0,98,0.00,,,0.00,weatherlink.com 1.10,2013-06-27 15:06:00,
2013-06-27 11:21:00,66.7,66.0,29.77,ENE,67,9.0,11.0,98,0.00,,,0.00,weatherlink.com 1.10,2013-06-27 15:21:00,
2013-06-27 11:36:00,66.6,66.0,29.77,East,82,6.0,9.0,98,0.00,,,0.00,weatherlink.com 1.10,2013-06-27 15:36:00,
2013-06-27 11:51:00,66.1,65.0,29.78,ESE,110,8.0,12.0,97,0.00,,,0.00,weatherlink.com 1.10,2013-06-27 15:51:00,
2013-06-27 12:06:00,66.7,66.0,29.78,SE,132,6.0,9.0,98,0.00,,,0.00,weatherlink.com 1.10,2013-06-27 16:06:00,
2013-06-27 12:21:00,66.6,66.0,29.77,SSE,152,6.0,8.0,97,0.00,,,0.00,weatherlink.com 1.10,2013-06-27 16:21:00,
2013-06-27 12:36:00,67.1,66.0,29.77,SSE,159,2.0,8.0,97,0.00,,,0.00,weatherlink.com 1.10,2013-06-27 16:36:00,
2013-06-27 12:51:00,67.3,67.0,29.77,SE,131,2.0,8.0,97,0.00,,,0.00,weatherlink.com 1.10,2013-06-27 16:51:00,
2013-06-27 13:06:00,67.6,67.0,29.76,ESE,113,2.0,4.0,97,0.00,,,0.00,weatherlink.com 1.10,2013-06-27 17:06:00,
2013-06-27 13:21:00,68.1,67.0,29.75,ESE,119,2.0,3.0,97,0.00,,,0.00,weatherlink.com 1.10,2013-06-27 17:21:00,
2013-06-27 13:36:00,67.9,67.0,29.75,ENE,58,2.0,6.0,96,0.00,,,0.00,weatherlink.com 1.10,2013-06-27 17:36:00,
2013-06-27 13:51:00,67.7,67.0,29.75,ENE,63,6.0,6.0,97,0.00,,,0.00,weatherlink.com 1.10,2013-06-27 17:51:00,
2013-06-27 14:06:00,67.8,67.0,29.76,East,89,3.0,7.0,97,0.00,,,0.00,weatherlink.com 1.10,2013-06-27 18:06:00,
2013-06-27 14:21:00,68.0,67.0,29.76,East,87,3.0,5.0,97,0.00,,,0.00,weatherlink.com 1.10,2013-06-27 18:21:00,
2013-06-27 14:36:00,68.3,68.0,29.75,East,87,5.0,6.0,97,0.00,,,0.00,weatherlink.com 1.10,2013-06-27 18:36:00,
2013-06-27 14:51:00,68.8,68.0,29.75,SE,134,1.0,7.0,97,0.00,,,0.00,weatherlink.com 1.10,2013-06-27 18:51:00,
2013-06-27 15:06:00,69.3,68.0,29.75,SE,146,3.0,4.0,96,0.00,,,0.00,weatherlink.com 1.10,2013-06-27 19:06:00,
2013-06-27 15:21:00,68.8,67.0,29.75,SE,138,2.0,5.0,95,0.00,,,0.00,weatherlink.com 1.10,2013-06-27 19:21:00,
2013-06-27 15:36:00,68.7,67.0,29.75,South,169,6.0,6.0,95,0.00,,,0.00,weatherlink.com 1.10,2013-06-27 19:36:00,
2013-06-27 15:51:00,67.5,66.0,29.75,SSE,150,5.0,6.0,95,0.00,,,0.00,weatherlink.com 1.10,2013-06-27 19:51:00,
2013-06-27 16:06:00,67.6,67.0,29.75,SE,139,4.0,5.0,96,0.00,,,0.00,weatherlink.com 1.10,2013-06-27 20:06:00,
2013-06-27 16:21:00,68.0,67.0,29.74,SSE,153,1.0,6.0,97,0.00,,,0.00,weatherlink.com 1.10,2013-06-27 20:21:00,
2013-06-27 16:36:00,68.6,68.0,29.74,SE,138,4.0,6.0,96,0.00,,,0.00,weatherlink.com 1.10,2013-06-27 20:36:00,
2013-06-27 16:51:00,69.1,68.0,29.73,SE,145,3.0,5.0,96,0.00,,,0.00,weatherlink.com 1.10,2013-06-27 20:51:00,
2013-06-27 17:06:00,69.1,68.0,29.73,SSE,153,5.0,7.0,96,0.00,,,0.00,weatherlink.com 1.10,2013-06-27 21:06:00,
2013-06-27 17:21:00,68.9,68.0,29.73,SE,145,5.0,8.0,96,0.00,,,0.00,weatherlink.com 1.10,2013-06-27 21:21:00,
2013-06-27 17:36:00,68.3,67.0,29.73,SSE,155,5.0,6.0,96,0.00,,,0.00,weatherlink.com 1.10,2013-06-27 21:36:00,
2013-06-27 18:36:00,67.8,67.0,29.73,SE,145,4.0,6.0,96,0.00,,,0.00,weatherlink.com 1.10,2013-06-27 22:36:00,
2013-06-27 18:51:00,67.5,66.0,29.73,SE,143,3.0,5.0,96,0.00,,,0.00,weatherlink.com 1.10,2013-06-27 22:51:00,
2013-06-27 19:06:00,67.4,67.0,29.73,SSE,160,1.0,3.0,97,0.00,,,0.00,weatherlink.com 1.10,2013-06-27 23:06:00,
2013-06-27 19:21:00,67.5,67.0,29.73,SE,143,2.0,2.0,97,0.00,,,0.00,weatherlink.com 1.10,2013-06-27 23:21:00,
2013-06-27 19:36:00,67.6,67.0,29.74,WSW,246,1.0,4.0,97,0.00,,,0.00,weatherlink.com 1.10,2013-06-27 23:36:00,
2013-06-27 19:51:00,67.3,67.0,29.74,SSW,198,0.0,4.0,97,0.00,,,0.00,weatherlink.com 1.10,2013-06-27 23:51:00,
2013-06-27 20:06:00,67.1,66.0,29.74,SW,226,3.0,3.0,97,0.00,,,0.00,weatherlink.com 1.10,2013-06-28 00:06:00,
2013-06-27 20:21:00,67.0,66.0,29.73,SE,134,3.0,4.0,97,0.00,,,0.00,weatherlink.com 1.10,2013-06-28 00:21:00,
2013-06-27 20:36:00,67.0,67.0,29.73,SSW,207,1.0,4.0,98,0.00,,,0.00,weatherlink.com 1.10,2013-06-28 00:36:00,
2013-06-27 20:51:00,67.0,67.0,29.73,SW,236,2.0,4.0,98,0.00,,,0.00,weatherlink.com 1.10,2013-06-28 00:51:00,
2013-06-27 21:06:00,67.2,67.0,29.73,SSE,164,2.0,6.0,98,0.00,,,0.00,weatherlink.com 1.10,2013-06-28 01:06:00,
2013-06-27 21:21:00,67.2,67.0,29.75,South,169,1.0,6.0,98,0.00,,,0.00,weatherlink.com 1.10,2013-06-28 01:21:00,
2013-06-27 21:36:00,67.2,67.0,29.75,SSE,158,1.0,7.0,98,0.00,,,0.00,weatherlink.com 1.10,2013-06-28 01:36:00,
2013-06-27 21:51:00,66.9,66.0,29.74,South,188,4.0,6.0,98,0.00,,,0.00,weatherlink.com 1.10,2013-06-28 01:51:00,
2013-06-27 22:06:00,67.2,67.0,29.74,South,181,3.0,5.0,98,0.00,,,0.00,weatherlink.com 1.10,2013-06-28 02:06:00,
2013-06-27 22:36:00,67.1,67.0,29.74,SW,219,2.0,6.0,98,0.00,,,0.00,weatherlink.com 1.10,2013-06-28 02:36:00,
2013-06-27 22:51:00,67.4,67.0,29.73,SSE,147,1.0,6.0,98,0.00,,,0.00,weatherlink.com 1.10,2013-06-28 02:51:00,
2013-06-27 23:06:00,67.4,67.0,29.73,SE,146,2.0,4.0,98,0.00,,,0.00,weatherlink.com 1.10,2013-06-28 03:06:00,
2013-06-27 23:21:00,67.2,67.0,29.73,SSE,160,4.0,5.0,98,0.00,,,0.00,weatherlink.com 1.10,2013-06-28 03:21:00,
2013-06-27 23:51:00,67.1,67.0,29.72,SSE,148,3.0,10.0,98,0.00,,,0.00,weatherlink.com 1.10,2013-06-28 03:51:00,